This is the latest recevied weather packets stored in our database for station/object HB9DDE-10. If no packets are shown the sender has not sent any weather packets the latest 10 day(s).
| Time | Temp. | Humidity | Pressure | Rain* | Wind** | Luminosity | Snow |
|---|---|---|---|---|---|---|---|
| 1778007526 | 12.78° C | 85% | 1009.9 hPa | 0 mm | - | - | - |
| 1778007216 | 13.33° C | 84% | 1009.9 hPa | 0 mm | - | - | - |
| 1778006928 | 13.89° C | 83% | 1009.9 hPa | 0 mm | - | - | - |
| 1778006618 | 13.89° C | 82% | 1009.9 hPa | 0 mm | - | - | - |
| 1778006329 | 13.89° C | 81% | 1009.9 hPa | 0 mm | - | - | - |
| 1778006020 | 14.44° C | 80% | 1009.7 hPa | 0 mm | - | - | - |
| 1778005734 | 14.44° C | 79% | 1009.7 hPa | 0 mm | - | - | - |
| 1778005422 | 14.44° C | 78% | 1009.7 hPa | 0 mm | - | - | - |
| 1778005132 | 15° C | 77% | 1009.8 hPa | 0 mm | - | - | - |
| 1778004821 | 15° C | 76% | 1009.8 hPa | 0 mm | - | - | - |
| 1778004530 | 15.56° C | 75% | 1009.8 hPa | 0 mm | - | - | - |
| 1778004220 | 15.56° C | 74% | 1009.8 hPa | 0 mm | - | - | - |
| 1778003930 | 15.56° C | 74% | 1009.7 hPa | 0 mm | - | - | - |
| 1778003620 | 16.11° C | 74% | 1009.8 hPa | 0 mm | - | - | - |
| 1778003314 | 16.11° C | 75% | 1009.7 hPa | 0 mm | - | - | - |
| 1778003025 | 15.56° C | 77% | 1009.7 hPa | 0 mm | - | - | - |
| 1778002715 | 15° C | 79% | 1009.9 hPa | 0 mm | - | - | - |
| 1778002424 | 14.44° C | 81% | 1009.9 hPa | 0 mm | - | - | - |
| 1778002114 | 14.44° C | 81% | 1009.9 hPa | 0 mm | - | - | - |
| 1778001824 | 14.44° C | 81% | 1009.7 hPa | 0 mm | - | - | - |
| 1778001532 | 14.44° C | 81% | 1009.6 hPa | 0 mm | - | - | - |
| 1778001221 | 14.44° C | 82% | 1009.5 hPa | 0 mm | - | - | - |
| 1778000932 | 13.89° C | 82% | 1009.5 hPa | 0 mm | - | - | - |
| 1778000625 | 13.89° C | 82% | 1009.7 hPa | 0 mm | - | - | - |
| 1778000314 | 13.89° C | 83% | 1009.7 hPa | 0 mm | - | - | - |
* Rain latest hour (hover to see other rain measurements)
** Current wind speed in m/s (hover to see current wind gust speed)